TimeEST,TemperatureF,Dew PointF,Humidity,Sea Level PressureIn,VisibilityMPH,Wind Direction,Wind SpeedMPH,Gust SpeedMPH,PrecipitationIn,Events,Conditions,WindDirDegrees,DateUTC
12:52 AM,30.0,27.0,88,30.27,10.0,Calm,Calm,-,N/A,,Overcast,0,2013-02-26 05:52:00
1:32 AM,28.4,26.6,93,30.25,1.8,Calm,Calm,-,N/A,,Partly Cloudy,0,2013-02-26 06:32:00
1:52 AM,28.0,26.1,92,30.25,0.8,Calm,Calm,-,N/A,,Clear,0,2013-02-26 06:52:00
2:01 AM,28.4,24.8,86,30.24,1.0,Calm,Calm,-,N/A,,Clear,0,2013-02-26 07:01:00
2:15 AM,28.4,24.8,86,30.24,3.0,Calm,Calm,-,N/A,,Clear,0,2013-02-26 07:15:00
2:33 AM,26.6,24.8,93,30.24,1.8,Calm,Calm,-,N/A,,Clear,0,2013-02-26 07:33:00
2:52 AM,27.0,24.1,89,30.24,0.5,Calm,Calm,-,N/A,Fog,Light Freezing Fog,0,2013-02-26 07:52:00
3:05 AM,26.6,24.8,93,30.25,2.0,Calm,Calm,-,N/A,,Clear,0,2013-02-26 08:05:00
3:14 AM,26.6,24.8,93,30.27,5.0,Calm,Calm,-,N/A,,Clear,0,2013-02-26 08:14:00
3:27 AM,26.6,24.8,93,30.27,2.5,Calm,Calm,-,N/A,,Clear,0,2013-02-26 08:27:00
3:35 AM,26.6,24.8,93,30.28,7.0,Calm,Calm,-,N/A,,Clear,0,2013-02-26 08:35:00
3:52 AM,27.0,24.1,89,30.29,6.0,Calm,Calm,-,N/A,,Clear,0,2013-02-26 08:52:00
4:52 AM,25.0,21.9,88,30.30,10.0,Calm,Calm,-,N/A,,Partly Cloudy,0,2013-02-26 09:52:00
5:52 AM,25.0,21.9,88,30.30,9.0,Calm,Calm,-,N/A,,Partly Cloudy,0,2013-02-26 10:52:00
6:52 AM,25.0,21.9,88,30.32,10.0,Calm,Calm,-,N/A,,Clear,0,2013-02-26 11:52:00
7:52 AM,30.0,30.0,100,30.33,10.0,Calm,Calm,-,N/A,,Clear,0,2013-02-26 12:52:00
8:52 AM,39.0,30.9,73,30.34,10.0,Calm,Calm,-,N/A,,Clear,0,2013-02-26 13:52:00
10:52 AM,-9999,-9999,N/A,30.33,10.0,ESE,11.5,16.1,N/A,,Clear,120,2013-02-26 15:52:00
11:52 AM,-9999,-9999,N/A,30.32,-9999.0,East,6.9,-,N/A,,Clear,80,2013-02-26 16:52:00
12:52 PM,43.0,26.1,51,30.32,10.0,North,-9999.0,-,N/A,,Partly Cloudy,0,2013-02-26 17:52:00
1:52 PM,43.0,21.9,43,30.31,10.0,East,11.5,-,N/A,,Clear,80,2013-02-26 18:52:00
2:52 PM,42.1,23.0,47,30.30,10.0,East,10.4,-,N/A,,Clear,90,2013-02-26 19:52:00
3:52 PM,39.9,23.0,51,30.30,10.0,East,9.2,-,N/A,,Clear,90,2013-02-26 20:52:00
4:52 PM,37.9,25.0,60,30.28,10.0,East,8.1,-,N/A,,Clear,100,2013-02-26 21:52:00
5:52 PM,36.0,26.1,67,30.28,10.0,East,4.6,-,N/A,,Clear,80,2013-02-26 22:52:00
6:52 PM,35.1,26.1,70,30.27,10.0,East,3.5,-,N/A,,Clear,80,2013-02-26 23:52:00
7:52 PM,35.1,27.0,72,30.26,10.0,ENE,3.5,-,N/A,,Clear,70,2013-02-27 00:52:00
8:52 PM,36.0,28.0,73,30.25,10.0,East,3.5,-,N/A,,Clear,80,2013-02-27 01:52:00
9:52 PM,36.0,28.9,76,30.22,10.0,ENE,5.8,-,N/A,,Clear,70,2013-02-27 02:52:00
10:15 PM,37.4,28.4,70,30.20,10.0,East,6.9,-,N/A,,Mostly Cloudy,80,2013-02-27 03:15:00
10:52 PM,37.9,30.0,73,30.17,10.0,East,8.1,-,N/A,,Overcast,80,2013-02-27 03:52:00
11:52 PM,39.0,32.0,76,30.14,10.0,East,11.5,-,N/A,,Overcast,90,2013-02-27 04:52:00